Location: Poughquag
(41.6090°N, 73.6820°W)
Time: 10:50:35
(UTC-05:00)

Envisat - Pass Details

Date: 25 January 2020
Orbit: 764 x 766 km, 98.1° (Epoch: 24 February)

Event Time Altitude Azimuth Distance (km) Brightness Sun altitude
Rises 06:12:40 0° 18° (NNE) 3,240 6.3 -11.5°
Reaches altitude 10° 06:15:03 10° 24° (NNE) 2,310 5.6 -11.0°
Maximum altitude 06:20:00 50° 99° (E) 971 4.1 -10.2°
Drops below altitude 10° 06:24:54 10° 175° (S) 2,292 5.8 -9.3°
Sets 06:27:15 0° 180° (S) 3,214 6.5 -8.9°
